Retour au catalogue

TITAN 3C TRANSTAGE DEB

ActifMEO
NORAD 38705·DEBRIS·🇺🇸 United States

Lancé Sep 26, 1968 depuis Cape Canaveral Space Force Station

Loading…

Prochains Passages (prochaines 24 heures)

TLE

FraisSource: Space-Track

Époque: Sep 14, 2026, 06:06 UTC

1 38705U 68081AF  26257.25434358 -.00000069  00000-0  00000-0 0  9998
2 38705   3.3909  61.0747 0286696   1.6042 358.8052  1.02088360 75971

Suivez TITAN 3C TRANSTAGE DEB en temps réel avec AllMySat

Download on the App Store